Ogden, UT

8:52 AM MST on February 08, 2016 (GMT -0700)
Ogden-Hinckley

Weather History for KOGD - October, 2012

Change the Weather History Date:

Sunday, October 21, 2012

  Actual Average Record
Temperature  
Mean Temperature 56 °F -  
Max Temperature 63 °F 64 °F - (-1)
Min Temperature 50 °F 36 °F - (-1)
Degree Days  
Heating Degree Days 8    
Growing Degree Days 6 (Base 50)    
Moisture  
Dew Point 38 °F    
Average Humidity 52    
Maximum Humidity 66    
Minimum Humidity 34    
Precipitation  
Precipitation 0.00 in - - ()
Sea Level Pressure  
Sea Level Pressure 29.68 in    
Wind  
Wind Speed 4 mph (SSW)    
Max Wind Speed 10 mph    
Max Gust Speed -    
Visibility 10 miles    
Events Rain , Thunderstorm    
Averages and records for this station are not official NWS values.
T = Trace of Precipitation, MM = Missing Value Source: NWS Daily Summary

Daily Weather History Graph

Daily Weather History Graph

Search for Another Location

Airport or City:

Trip Planner

Search our weather history database for the weather conditions in past years. The results will help you decide how hot, cold, wet, or windy it might be!

Date:

Astronomy

Oct. 21, 2012 Rise Set
Actual Time 7:47 AM MDT 6:37 PM MDT
Civil Twilight 7:18 AM MDT 7:05 PM MDT
Nautical Twilight 6:46 AM MDT 7:37 PM MDT
Astronomical Twilight 6:14 AM MDT 8:09 PM MDT
Moon 2:11 PM MDT (10/21) No Moon Set
Length of Visible Light 11h 46m
Length of Day
10h 50m
Waxing Crescent, 46% of the Moon is Illuminated
Oct 21
Waxing Crescent
Oct 21
First Quarter
Oct 29
Full
Nov 6
Last Quarter
Nov 13
New

Hourly Weather History & Observations

Time (MDT) Temp. Dew Point Humidity Pressure Visibility Wind Dir Wind Speed Gust Speed Precip Events Conditions
12:53 AM 53.1 °F 39.0 °F 59% 29.62 in 10.0 mi WNW 4.6 mph - N/A   Clear
1:53 AM 53.1 °F 39.0 °F 59% 29.62 in 10.0 mi Calm Calm - N/A   Clear
2:53 AM 52.0 °F 39.9 °F 63% 29.65 in 10.0 mi SW 3.5 mph - N/A   Clear
3:53 AM 51.1 °F 39.0 °F 63% 29.64 in 10.0 mi SSW 3.5 mph - N/A   Clear
4:53 AM 50.0 °F 39.0 °F 66% 29.64 in 10.0 mi SW 4.6 mph - N/A   Clear
5:53 AM 51.1 °F 39.9 °F 66% 29.66 in 10.0 mi SW 6.9 mph - N/A   Clear
6:53 AM 50.0 °F 39.0 °F 66% 29.68 in 10.0 mi South 5.8 mph - N/A   Clear
7:53 AM 50.0 °F 37.0 °F 61% 29.69 in 10.0 mi South 6.9 mph - N/A   Mostly Cloudy
8:53 AM 50.0 °F 36.0 °F 59% 29.71 in 10.0 mi SSE 5.8 mph - N/A   Overcast
9:53 AM 54.0 °F 39.9 °F 59% 29.72 in 10.0 mi South 3.5 mph - N/A   Mostly Cloudy
10:53 AM 59.0 °F 37.9 °F 46% 29.72 in 10.0 mi Calm Calm - N/A   Mostly Cloudy
11:53 AM 61.0 °F 37.0 °F 41% 29.71 in 10.0 mi NW 6.9 mph - N/A   Mostly Cloudy
12:53 PM 60.1 °F 37.0 °F 42% 29.71 in 10.0 mi Calm Calm - N/A   Overcast
1:53 PM 63.0 °F 37.0 °F 38% 29.70 in 10.0 mi Calm Calm - N/A   Partly Cloudy
2:53 PM 62.1 °F 35.1 °F 37% 29.69 in 10.0 mi NW 3.5 mph - N/A   Clear
3:53 PM 62.1 °F 33.1 °F 34% 29.68 in 10.0 mi SW 3.5 mph - N/A   Clear
4:53 PM 62.1 °F 35.1 °F 37% 29.68 in 10.0 mi Calm Calm - N/A   Mostly Cloudy
5:53 PM 61.0 °F 34.0 °F 36% 29.67 in 10.0 mi ENE 3.5 mph - N/A   Overcast
6:53 PM 59.0 °F 36.0 °F 42% 29.67 in 10.0 mi Calm Calm - N/A   Overcast
7:53 PM 59.0 °F 39.0 °F 48% 29.65 in 10.0 mi Calm Calm - 0.00 in Rain Light Rain
8:00 PM 59.0 °F 37.4 °F 45% 29.75 in 10.0 mi South 10.4 mph - 0.00 in Thunderstorm Scattered Clouds
8:09 PM 59.0 °F 35.6 °F 42% 29.76 in 10.0 mi SSE 8.1 mph - 0.00 in   Partly Cloudy
8:53 PM 59.0 °F 39.0 °F 48% 29.65 in 10.0 mi SSE 4.6 mph - 0.00 in   Clear
9:53 PM 59.0 °F 41.0 °F 51% 29.63 in 10.0 mi SSE 5.8 mph - 0.00 in Rain Light Rain
10:53 PM 53.1 °F 42.1 °F 66% 29.64 in 10.0 mi Calm Calm - 0.00 in   Scattered Clouds
11:53 PM 53.1 °F 42.1 °F 66% 29.64 in 10.0 mi Calm Calm - N/A   Overcast